Location: A�t �Alizem
(31.2076°N, 8.7872°W)
Time: 06:35:29
(UTC+00:00)

Cosmos 1812 - Pass Details

Date: 27 November 2020
Orbit: 517 x 520 km, 82.5° (Epoch: 25 January)

Event Time Altitude Azimuth Distance (km) Brightness Sun altitude
Rises 18:23:39 0° 148° (SSE) 2,624 6.1 -11.0°
Reaches altitude 10° 18:26:28 10° 125° (SE) 1,741 5.0 -11.5°
Enters shadow 18:28:11 15° 99° (E) 1,458 4.4 -11.9°
